Stations météo

réclame
Mon MeteoGroup
Cap-de-la Heve, France (7028): Température de l'air & dewpoint: 19.01.2020 04:00:00 - 25.01.2020 04:00:00 (CET)Cap-de-la Heve, France (7028): Température de l'air 5cm: 19.01.2020 04:00:00 - 25.01.2020 04:00:00 (CET)Cap-de-la Heve, France (7028): Vitesse du vent & gusts: 19.01.2020 04:00:00 - 25.01.2020 04:00:00 (CET)Cap-de-la Heve, France (7028): Direction du vent: 19.01.2020 04:00:00 - 25.01.2020 04:00:00 (CET)Cap-de-la Heve, France (7028): reduced air pressure: 19.01.2020 04:00:00 - 25.01.2020 04:00:00 (CET)Cap-de-la Heve, France (7028): visibility: 19.01.2020 04:00:00 - 25.01.2020 04:00:00 (CET)Cap-de-la Heve, France (7028): Quantités de précipitations: 19.01.2020 04:00:00 - 25.01.2020 04:00:00 (CET)
Date & Time tt [°C] td [°C] tt 5cm [°C] ff [km/h] ff [knt] fx [km/h] fx [knt] dd ppp [hPa] vv [km] rr [mm]
25.01.2020 04:00:00 1,4 1,4 1,6 13 7 20 11 E 1021,0 - 0,0
25.01.2020 03:00:00 1,5 1,5 1,6 11 6 19 10 E 1021,5 - 0,0
25.01.2020 02:00:00 1,6 1,6 1,7 9 5 18 10 ESE 1021,9 - 0,0
25.01.2020 01:00:00 2,0 2,0 2,0 12 6 21 11 ESE 1021,9 - 0,0
25.01.2020 00:00:00 1,9 1,8 1,8 12 7 19 11 E 1022,1 - 0,0
24.01.2020 23:00:00 1,7 1,6 1,7 11 6 22 12 ENE 1022,6 - 0,0
24.01.2020 22:00:00 1,6 1,5 1,6 10 6 16 9 ENE 1022,7 0,5 0,0
24.01.2020 21:00:00 1,6 1,2 1,4 8 4 19 10 E 1022,6 - 0,0
24.01.2020 20:00:00 1,4 0,7 1,4 14 8 24 13 ESE 1022,4 - 0,0
24.01.2020 19:00:00 1,6 0,6 1,6 6 3 15 8 ESE 1022,6 4,0 0,0
24.01.2020 18:00:00 1,6 0,4 1,6 7 4 17 9 E 1022,7 - 0,0
24.01.2020 17:00:00 1,7 0,2 1,9 - - 19 11 - 1022,2 - 0,0
24.01.2020 16:00:00 1,9 0,3 2,7 11 6 23 12 SE 1022,5 2,0 0,0
24.01.2020 15:00:00 2,2 0,3 3,1 10 5 20 11 ESE 1022,6 - 0,0
24.01.2020 14:00:00 1,6 0,1 2,3 11 6 19 10 E 1023,5 - 0,0
24.01.2020 13:00:00 1,6 0,0 2,1 5 3 14 8 NE 1023,8 - 0,0
24.01.2020 12:00:00 1,2 0,0 1,8 5 3 17 9 ESE 1024,3 - 0,0
24.01.2020 11:00:00 1,1 0,2 0,9 4 2 11 6 ESE 1024,2 - 0,0
24.01.2020 10:00:00 0,6 -0,3 0,7 5 3 21 11 E 1024,2 2,0 0,0
24.01.2020 09:00:00 0,5 -0,2 0,6 10 5 20 11 ESE 1023,5 - 0,0
24.01.2020 08:00:00 0,6 -0,3 0,7 8 5 21 11 E 1023,5 - 0,0
24.01.2020 07:00:00 0,8 -0,1 0,8 5 3 14 8 E 1023,4 5 0,0
24.01.2020 06:00:00 0,9 -0,1 0,9 0 0 13 7 N 1023,5 - 0,0
24.01.2020 05:00:00 1,5 0,5 1,5 5 3 20 11 ESE 1023,9 - 0,0
24.01.2020 04:00:00 1,7 0,7 1,8 4 2 13 7 ESE 1024,1 5 0,0
24.01.2020 03:00:00 1,7 1,0 1,8 8 4 15 8 ENE 1025,0 - 0,0
24.01.2020 02:00:00 2,0 1,1 2,1 7 4 15 8 NE 1025,0 - 0,0
24.01.2020 01:00:00 2,4 1,8 2,5 7 4 17 9 ENE 1025,7 5 0,0
24.01.2020 00:00:00 2,6 2,0 2,6 9 5 18 10 E 1025,9 - 0,0
23.01.2020 23:00:00 3,0 2,3 2,8 3 2 18 10 ESE 1026,3 - 0,0
23.01.2020 22:00:00 2,8 1,9 2,4 8 4 22 12 E 1026,6 - 0,0
23.01.2020 21:00:00 2,8 1,9 1,5 7 4 17 9 E 1026,1 - 0,0
23.01.2020 20:00:00 2,6 1,9 1,4 6 3 13 7 E 1026,4 - 0,0
23.01.2020 19:00:00 2,8 1,9 1,8 - - 13 7 - 1026,4 5 0,0
23.01.2020 18:00:00 3,3 2,3 2,3 6 4 18 10 ENE 1027,0 - 0,0
23.01.2020 17:00:00 3,8 2,5 3,9 8 4 21 11 ENE 1027,1 - 0,0
23.01.2020 16:00:00 3,6 2,4 3,8 11 6 23 12 ENE 1027,6 4,0 0,0
23.01.2020 15:00:00 3,2 1,9 3,6 6 4 24 13 ENE 1028,2 - 0,0
23.01.2020 14:00:00 2,5 0,9 3,4 15 8 26 14 ENE 1029,0 - 0,0
23.01.2020 13:00:00 2,4 0,1 2,9 14 8 29 15 ENE 1029,8 - 0,0
23.01.2020 12:00:00 1,0 -0,3 1,2 - - 31 17 - 1030,7 - 0,0
23.01.2020 11:00:00 0,5 -0,2 0,6 13 7 23 12 ENE 1031,2 - 0,0
23.01.2020 10:00:00 0,3 -0,1 -0,3 9 5 23 13 ENE 1031,6 4,0 0,0
23.01.2020 09:00:00 0,0 -0,4 -0,7 10 5 18 10 ENE 1031,6 - 0,0
23.01.2020 08:00:00 -0,2 -0,8 -0,6 11 6 29 16 NE 1031,6 - 0,0
23.01.2020 07:00:00 0,0 -0,6 -0,4 17 9 30 16 ENE 1031,6 7 0,0
23.01.2020 06:00:00 0,2 -0,5 -0,5 19 10 33 18 ENE 1031,5 - 0,0
23.01.2020 05:00:00 -0,1 -1,0 -0,6 11 6 32 18 NE 1031,9 - 0,0
23.01.2020 04:00:00 -0,1 -0,8 -0,7 21 12 32 18 ENE 1032,4 - 0,0
23.01.2020 03:00:00 -0,3 -1,4 -0,6 23 12 40 22 ENE 1033,0 - 0,0
23.01.2020 02:00:00 -0,1 -1,1 -0,3 27 14 42 23 ENE 1033,4 - 0,0
23.01.2020 01:00:00 0,3 -0,6 0,0 27 14 40 21 ENE 1033,9 - 0,0
23.01.2020 00:00:00 0,7 -0,2 0,3 19 10 32 18 ENE 1034,3 - 0,0
22.01.2020 23:00:00 1,3 0,4 0,9 16 9 37 20 ENE 1034,4 - 0,0
22.01.2020 22:00:00 1,8 0,8 1,5 23 13 42 23 ENE 1034,5 7 0,0
22.01.2020 21:00:00 2,0 0,7 1,6 30 16 45 24 NE 1034,2 - 0,0
22.01.2020 20:00:00 2,5 0,7 2,1 26 14 41 22 NE 1034,4 - 0,0
22.01.2020 19:00:00 2,8 0,8 1,9 15 8 27 14 NE 1034,6 7 0,0
22.01.2020 18:00:00 3,0 0,6 2,4 - - 20 11 - 1034,6 - 0,0
22.01.2020 17:00:00 4,1 0,4 4,5 10 6 18 10 NE 1034,7 - 0,0
22.01.2020 16:00:00 5,3 0,5 8,8 5 3 15 8 ENE 1035,1 - 0,0
22.01.2020 15:00:00 5,3 1,0 8,3 10 5 22 12 E 1035,1 - 0,0
22.01.2020 14:00:00 4,5 1,3 7,3 9 5 29 15 E 1036,0 - 0,0
22.01.2020 13:00:00 4,8 1,6 5,2 10 5 29 15 ENE 1036,9 - 0,0
22.01.2020 12:00:00 3,8 1,5 3,8 10 6 24 13 ENE 1037,3 - 0,0
22.01.2020 11:00:00 2,9 1,1 2,6 9 5 21 12 ENE 1037,1 - 0,0
22.01.2020 10:00:00 2,4 0,3 1,8 9 5 21 11 ENE 1036,7 - 0,0
22.01.2020 09:00:00 2,3 -2,0 1,0 15 8 23 13 ENE 1036,5 - 0,0
22.01.2020 08:00:00 1,6 0,0 0,9 18 10 23 12 ENE 1036,9 - 0,0
22.01.2020 07:00:00 2,0 -0,4 1,3 16 8 21 11 ENE 1036,9 15 0,0
22.01.2020 06:00:00 2,6 -0,7 1,6 13 7 19 10 NE 1037,1 - 0,0
22.01.2020 05:00:00 2,7 -1,1 1,7 13 7 18 10 ENE 1037,6 - 0,0
22.01.2020 04:00:00 2,5 -2,0 0,6 8 5 17 9 NE 1038,4 - 0,0
22.01.2020 03:00:00 1,2 -1,9 -0,7 11 6 16 9 NNE 1038,9 - 0,0
22.01.2020 02:00:00 0,7 -1,7 -0,6 8 5 10 5 NE 1038,6 - 0,0
22.01.2020 01:00:00 1,8 -1,3 0,7 8 5 18 10 E 1039,1 - 0,0
22.01.2020 00:00:00 2,1 -1,2 1,0 7 4 23 12 E 1039,5 - 0,0
21.01.2020 23:00:00 2,6 -0,9 1,6 14 7 24 13 E 1039,5 - 0,0
21.01.2020 22:00:00 2,8 -0,3 2,1 13 7 28 15 ENE 1039,8 15 0,0
21.01.2020 21:00:00 2,9 -0,6 2,0 16 9 26 14 ENE 1040,1 - 0,0
21.01.2020 20:00:00 3,4 -0,6 2,4 14 8 23 13 ENE 1040,1 - 0,0
21.01.2020 19:00:00 3,2 -0,1 1,8 10 5 18 10 NE 1040,0 12 0,0
21.01.2020 18:00:00 4,0 -0,4 2,5 0 0 13 7 N 1039,7 - 0,0
21.01.2020 17:00:00 5,3 -0,3 6,1 6 4 13 7 NE 1040,0 - 0,0
21.01.2020 16:00:00 5,9 -0,8 9,2 3 2 11 6 NE 1040,3 - 0,0
21.01.2020 15:00:00 6,4 2,5 9,1 3 2 10 6 SSW 1040,7 - 0,0
21.01.2020 14:00:00 5,5 2,1 8,8 5 3 11 6 SW 1041,3 - 0,0
21.01.2020 13:00:00 4,5 1,5 8,3 4 2 10 6 NNW 1042,1 - 0,0
21.01.2020 12:00:00 4,7 1,5 6,0 8 4 14 7 S 1042,7 - 0,0
21.01.2020 11:00:00 3,0 0,9 3,4 3 2 8 5 ENE 1042,8 - 0,0
21.01.2020 10:00:00 2,3 0,8 0,9 3 2 11 6 E 1042,7 10 0,0
21.01.2020 09:00:00 1,7 0,4 1,0 8 4 18 10 ESE 1042,4 - 0,0
21.01.2020 08:00:00 2,4 0,9 2,2 12 7 24 13 E 1042,2 - 0,0
21.01.2020 07:00:00 3,4 2,1 3,1 9 5 18 10 ESE 1041,8 - 0,0
21.01.2020 06:00:00 4,0 2,3 3,7 2 1 9 5 E 1041,9 - 0,0
21.01.2020 05:00:00 4,3 2,3 4,0 0 0 18 10 N 1042,3 - 0,0
21.01.2020 04:00:00 4,6 2,5 4,3 14 8 23 12 ENE 1042,8 - 0,0
21.01.2020 03:00:00 4,7 2,9 4,6 11 6 19 11 ENE 1043,4 - 0,0
21.01.2020 02:00:00 5,0 3,2 4,7 11 6 24 13 ENE 1044,1 - 0,0
21.01.2020 01:00:00 5,2 3,7 5,0 12 7 22 12 ENE 1044,4 10 0,0
21.01.2020 00:00:00 5,4 3,6 5,2 12 7 20 11 ENE 1044,7 - 0,0
20.01.2020 23:00:00 5,6 3,6 5,4 14 7 21 11 ENE 1045,0 - 0,0
20.01.2020 22:00:00 5,7 3,7 5,4 10 5 22 12 NE 1045,2 15 0,0
20.01.2020 21:00:00 5,6 3,8 5,3 16 9 26 14 NNE 1045,1 - 0,0
20.01.2020 20:00:00 5,5 3,5 5,1 16 9 27 15 NNE 1045,3 - 0,0
20.01.2020 19:00:00 5,5 3,2 5,2 14 8 24 13 NNE 1045,4 - 0,0
20.01.2020 18:00:00 5,6 3,1 5,4 10 5 16 9 NNE 1046,0 - 0,0
20.01.2020 17:00:00 5,7 3,2 5,7 0 0 16 8 N 1046,2 - 0,0
20.01.2020 16:00:00 5,8 3,1 6,1 8 5 16 9 NNE 1046,7 - 0,0
20.01.2020 15:00:00 5,9 3,1 6,7 3 2 16 9 ENE 1047,0 - 0,0
20.01.2020 14:00:00 5,8 3,1 6,7 8 4 17 9 ENE 1047,7 - 0,0
20.01.2020 13:00:00 6,0 3,2 6,9 6 3 21 12 E 1048,5 10 0,0
20.01.2020 12:00:00 6,5 3,3 7,5 10 5 23 13 ENE 1048,9 - 0,0
20.01.2020 11:00:00 5,9 3,2 5,7 10 5 20 11 ENE 1049,0 - 0,0
20.01.2020 10:00:00 4,9 3,1 4,0 11 6 24 13 ENE 1048,6 15 0,0
20.01.2020 09:00:00 4,4 2,9 3,5 15 8 28 15 NE 1048,3 - 0,0
20.01.2020 08:00:00 4,1 2,6 3,2 18 10 31 17 NE 1048,2 - 0,0
20.01.2020 07:00:00 3,8 2,5 2,4 13 7 24 13 NE 1048,3 15 0,0
20.01.2020 06:00:00 3,6 2,1 3,0 9 5 20 11 NE 1047,8 - 0,0
20.01.2020 05:00:00 3,9 2,3 3,3 14 7 27 15 NE 1047,4 - 0,0
20.01.2020 04:00:00 4,4 2,6 3,8 15 8 24 13 ENE 1047,3 - 0,0
20.01.2020 03:00:00 4,9 2,8 4,0 13 7 24 13 ENE 1047,9 - 0,0
20.01.2020 02:00:00 5,0 3,0 4,0 14 8 24 13 ENE 1048,2 - 0,0
20.01.2020 01:00:00 5,0 3,2 4,3 11 6 22 12 ENE 1048,0 - 0,0
20.01.2020 00:00:00 5,4 3,4 4,5 14 7 28 15 NE 1047,9 - 0,0
19.01.2020 23:00:00 5,3 3,3 4,4 16 9 28 15 NE 1047,8 - 0,0
19.01.2020 22:00:00 5,2 3,2 4,3 13 7 33 18 NNE 1047,2 20 0,0
19.01.2020 21:00:00 5,2 2,5 4,1 14 8 34 18 NE 1046,9 - 0,0
19.01.2020 20:00:00 5,4 2,9 4,0 17 9 36 19 NNE 1046,7 - 0,2
19.01.2020 19:00:00 5,2 2,9 4,2 14 8 46 25 NE 1046,4 20 0,2
19.01.2020 18:00:00 6,6 3,0 6,1 17 9 35 19 NNE 1045,1 - 0,0
19.01.2020 17:00:00 7,0 3,1 7,0 17 9 39 21 NNE 1044,5 - 0,0
19.01.2020 16:00:00 7,5 2,2 7,7 19 11 43 23 NNE 1044,0 - 0,0
19.01.2020 15:00:00 7,9 2,8 7,5 22 12 43 23 NNE 1043,5 - 0,0
19.01.2020 14:00:00 8,0 2,7 7,8 17 9 40 22 NNE 1043,4 - 0,0
19.01.2020 13:00:00 7,6 2,3 6,7 16 9 39 21 NE 1043,6 - 0,0
19.01.2020 12:00:00 7,5 3,0 7,1 17 9 37 20 NNE 1043,5 - 0,0
19.01.2020 11:00:00 6,7 3,1 5,7 16 8 29 16 NNE 1042,9 - 0,0
19.01.2020 10:00:00 5,4 2,2 3,7 9 5 23 13 NNE 1042,3 - 0,0
19.01.2020 09:00:00 4,1 1,8 2,8 13 7 21 11 NNE 1041,2 - 0,0
19.01.2020 08:00:00 3,9 1,6 2,8 8 5 21 11 NE 1040,1 - 0,0
19.01.2020 07:00:00 4,4 1,8 3,5 13 7 24 13 NNE 1039,1 20 0,0
19.01.2020 06:00:00 4,5 1,7 3,8 13 7 21 11 NNE 1038,2 - 0,0
19.01.2020 05:00:00 4,8 2,0 3,5 11 6 21 11 NNE 1037,8 - 0,0
19.01.2020 04:00:00 4,7 1,7 3,8 11 6 19 10 NNE 1037,3 - 0,0

tt = Température de l'air
td = dewpoint
tt 5cm = Température de l'air 5cm
ff = Vitesse du vent
fx = gusts
dd = Direction du vent
ppp = reduced air pressure
vv = visibility
rr = Quantités de précipitations

stations d'obs. à proximité